This is the latest recevied weather packets stored in our database for station/object W8DRH-13. If no packets are shown the sender has not sent any weather packets the latest 10 day(s).
| Time | Temp. | Humidity | Pressure | Rain* | Wind** | Luminosity | Snow |
|---|---|---|---|---|---|---|---|
| 1777306919 | 19.44° C | 68% | 1015 hPa | 0 mm | - | 677 W/m² | - |
| 1777306616 | 19.44° C | 68% | 1014.9 hPa | 0 mm | - | 604 W/m² | - |
| 1777306310 | 19.44° C | 68% | 1014.9 hPa | 0 mm | - | 649 W/m² | - |
| 1777306006 | 19.44° C | 68% | 1015 hPa | 0 mm | - | 628 W/m² | - |
| 1777305704 | 18.89° C | 68% | 1015.2 hPa | 0 mm | - | 632 W/m² | - |
| 1777305399 | 18.89° C | 69% | 1015 hPa | 0 mm | - | 613 W/m² | - |
| 1777305093 | 18.89° C | 70% | 1014.9 hPa | 0 mm | - | 631 W/m² | - |
| 1777304788 | 18.33° C | 70% | 1015 hPa | 0 mm | - | 601 W/m² | - |
| 1777304486 | 18.33° C | 70% | 1015.2 hPa | 0 mm | - | 522 W/m² | - |
| 1777304183 | 18.33° C | 70% | 1015.2 hPa | 0 mm | - | 655 W/m² | - |
| 1777303880 | 17.78° C | 71% | 1015.2 hPa | 0 mm | - | 713 W/m² | - |
| 1777303577 | 17.78° C | 72% | 1015.1 hPa | 0 mm | - | 675 W/m² | - |
| 1777303275 | 17.78° C | 72% | 1015.3 hPa | 0 mm | - | 652 W/m² | - |
| 1777302972 | 16.67° C | 74% | 1015.4 hPa | 0 mm | - | 614 W/m² | - |
| 1777302668 | 16.67° C | 75% | 1015.5 hPa | 0 mm | - | 679 W/m² | - |
| 1777302368 | 16.67° C | 74% | 1015.4 hPa | 0 mm | - | 590 W/m² | - |
| 1777302065 | 16.67° C | 75% | 1015.6 hPa | 0 mm | - | 537 W/m² | - |
| 1777301762 | 16.67° C | 74% | 1015.5 hPa | 0 mm | - | 619 W/m² | - |
| 1777301459 | 16.11° C | 75% | 1015.5 hPa | 0 mm | - | 592 W/m² | - |
| 1777301156 | 16.11° C | 76% | 1015.7 hPa | 0 mm | - | 463 W/m² | - |
| 1777300853 | 15.56° C | 76% | 1015.7 hPa | 0 mm | - | 488 W/m² | - |
| 1777300551 | 15.56° C | 76% | 1016 hPa | 0 mm | - | 526 W/m² | - |
| 1777300248 | 15.56° C | 76% | 1016 hPa | 0 mm | - | 531 W/m² | - |
| 1777299944 | 15.56° C | 76% | 1016.1 hPa | 0 mm | - | 573 W/m² | - |
| 1777299641 | 15° C | 76% | 1016.1 hPa | 0 mm | - | 551 W/m² | - |
* Rain latest hour (hover to see other rain measurements)
** Current wind speed in m/s (hover to see current wind gust speed)